FW6620 Weather Reports


Display with metric or nautical units.
time (UTC)temp
F
wind
direction
speed
MPH
gust
MPH
rain 1hr
in
rain 24hr
in
rain mn
in
humidity
%
barometer
mb
20260503232045 76 0 0.0 6.0 0.01 0.04 0.03 45 1017.9
20260503231600 77 27 1.0 4.0 0.01 0.04 0.03 42 1018.0
20260503231045 77 26 1.0 5.0 0.01 0.04 0.03 42 1018.1
20260503230548 77 19 0.0 5.0 0.01 0.04 0.03 42 1017.9
20260503230051 77 19 1.0 5.0 0.01 0.04 0.03 41 1017.8
20260503225546 77 0 1.0 4.0 0.01 0.05 0.03 42 1017.9
20260503225049 77 19 0.0 4.0 0.01 0.05 0.03 43 1018.0
20260503224601 78 28 0.0 4.0 0.01 0.05 0.03 45 1018.1
20260503224047 78 28 1.0 4.0 0.01 0.05 0.03 42 1018.0
20260503223548 78 26 0.0 6.0 0.01 0.05 0.03 44 1018.2
20260503223054 78 41 0.0 6.0 0.01 0.05 0.03 42 1018.4
20260503222545 78 0 0.0 4.0 0.00 0.04 0.02 44 1018.3
20260503222045 78 35 0.0 4.0 0.00 0.04 0.02 43 1018.5
20260503221556 79 0 1.0 5.0 0.00 0.04 0.02 42 1018.4
20260503221049 79 0 1.0 6.0 0.00 0.04 0.02 42 1018.5
20260503220546 79 0 1.0 6.0 0.00 0.04 0.02 43 1018.6
20260503220054 79 20 0.0 6.0 0.00 0.04 0.02 46 1018.7
20260503215546 79 29 0.0 4.0 0.00 0.04 0.02 43 1018.7
20260503215045 79 0 1.0 5.0 0.00 0.04 0.02 44 1018.8
20260503214557 78 41 1.0 5.0 0.00 0.04 0.02 44 1018.8
20260503214050 78 0 1.0 8.0 0.00 0.04 0.02 42 1018.8
20260503213547 78 14 0.0 8.0 0.00 0.04 0.02 43 1018.9
20260503213125 79 4 0.0 8.0 0.00 0.04 0.02 40 1019.1
20260503212547 79 0 2.0 8.0 0.00 0.04 0.02 40 1019.2
20260503212050 79 35 1.0 6.0 0.00 0.04 0.02 41 1019.2
20260503211619 79 30 0.0 6.0 0.00 0.04 0.02 39 1019.2
20260503211047 79 26 1.0 6.0 0.00 0.04 0.02 41 1019.5
20260503210546 79 27 1.0 10.0 0.00 0.04 0.02 39 1019.4
20260503210047 79 22 3.0 10.0 0.00 0.04 0.02 40 1019.7
20260503205546 79 29 1.0 5.0 0.00 0.04 0.02 40 1019.8
20260503205047 79 33 1.0 8.0 0.00 0.04 0.02 40 1019.8
20260503204603 79 82 1.0 8.0 0.00 0.04 0.02 42 1019.8
20260503204046 79 0 0.0 5.0 0.00 0.04 0.02 43 1019.8
20260503203545 79 28 1.0 5.0 0.00 0.04 0.02 39 1020.0
20260503203049 79 25 0.0 9.0 0.00 0.04 0.02 41 1020.1
20260503202547 78 30 2.0 9.0 0.00 0.04 0.02 41 1020.4
20260503202048 78 33 1.0 4.0 0.00 0.04 0.02 41 1020.4
20260503201551 79 0 1.0 6.0 0.00 0.04 0.02 40 1020.5
20260503201046 79 0 2.0 10.0 0.00 0.04 0.02 39 1020.5
20260503200546 79 24 3.0 10.0 0.00 0.04 0.02 39 1020.5
20260503200052 79 46 2.0 6.0 0.00 0.04 0.02 39 1020.6
20260503195546 79 24 1.0 5.0 0.00 0.05 0.02 40 1020.8
20260503195046 79 0 0.0 5.0 0.00 0.05 0.02 39 1020.9
20260503194553 79 10 1.0 4.0 0.00 0.05 0.02 42 1020.9
20260503194046 79 0 1.0 5.0 0.00 0.05 0.02 40 1021.0
20260503193546 79 9 1.0 5.0 0.00 0.05 0.02 42 1021.0
20260503193053 79 37 1.0 5.0 0.00 0.05 0.02 43 1021.1
20260503192546 79 14 1.0 5.0 0.00 0.05 0.02 42 1021.3
20260503192045 78 0 1.0 4.0 0.00 0.05 0.02 44 1021.2
20260503191603 78 0 0.0 6.0 0.00 0.05 0.02 42 1021.2
20260503191045 78 20 0.0 7.0 0.00 0.05 0.02 42 1021.4
20260503190546 78 0 1.0 7.0 0.00 0.05 0.02 40 1021.5
20260503190051 78 32 1.0 7.0 0.00 0.05 0.02 43 1021.6
20260503185545 78 0 0.0 7.0 0.00 0.05 0.02 44 1021.5
20260503185045 78 15 1.0 6.0 0.00 0.05 0.02 43 1021.6
20260503184611 78 0 2.0 6.0 0.00 0.05 0.02 43 1021.8
20260503184047 78 72 1.0 5.0 0.00 0.05 0.02 45 1021.7
20260503183545 78 0 1.0 5.0 0.00 0.05 0.02 41 1021.8
20260503183105 78 36 1.0 5.0 0.00 0.05 0.02 42 1022.1
20260503182544 78 0 1.0 4.0 0.00 0.05 0.02 44 1022.0
20260503182124 78 16 1.0 5.0 0.00 0.05 0.02 42 1022.2
20260503181553 78 17 1.0 7.0 0.00 0.05 0.02 45 1022.3
20260503181045 78 0 1.0 7.0 0.00 0.05 0.02 50 1022.3
20260503180546 77 16 0.0 6.0 0.00 0.05 0.02 46 1022.4
20260503180054 77 22 0.0 8.0 0.00 0.05 0.02 44 1022.5
20260503175546 77 40 2.0 8.0 0.00 0.06 0.02 45 1022.7
20260503175045 77 10 1.0 5.0 0.00 0.06 0.02 44 1022.7
20260503174610 77 20 0.0 6.0 0.00 0.06 0.02 45 1022.8
20260503174047 76 22 1.0 6.0 0.00 0.06 0.02 45 1022.8
20260503173545 76 22 0.0 9.0 0.00 0.06 0.02 46 1022.9
20260503173125 76 20 2.0 9.0 0.00 0.06 0.02 43 1022.9
20260503172546 76 15 1.0 5.0 0.00 0.06 0.02 45 1023.0
20260503172044 76 29 0.0 5.0 0.00 0.06 0.02 46 1022.9
20260503171559 76 10 2.0 5.0 0.00 0.06 0.02 45 1023.0
20260503171045 76 20 1.0 6.0 0.00 0.06 0.02 49 1023.1
20260503170546 75 0 1.0 6.0 0.00 0.06 0.02 45 1023.2
20260503160104 72 0 1.0 5.0 0.01 0.07 0.02 56 1023.7
20260503150548 65 0 0.0 2.0 0.00 0.07 0.01 81 1023.7
20260503131046 53 0 0.0 0.0 0.00 0.09 0.01 96 1023.3
20260503130547 53 0 0.0 0.0 0.00 0.09 0.01 96 1023.1
20260503110545 51 0 0.0 0.0 0.01 0.10 0.01 94 1022.4
20260503081558 53 0 0.0 0.0 0.00 0.12 0.00 92 1022.1
20260503081048 53 0 0.0 0.0 0.00 0.12 0.00 92 1022.1
20260503080551 53 0 0.0 0.0 0.00 0.12 0.00 92 1022.0
20260503072547 53 0 0.0 0.0 0.00 0.13 0.00 92 1022.3
20260503072047 53 0 0.0 0.0 0.00 0.13 0.00 92 1022.4
20260503071608 53 0 0.0 0.0 0.00 0.13 0.00 92 1022.4
20260503071047 53 0 0.0 0.0 0.00 0.13 0.00 92 1022.2
20260503070549 53 0 0.0 0.0 0.00 0.13 0.00 92 1022.3
20260503070110 53 0 0.0 0.0 0.00 0.13 0.00 91 1022.5
20260503055047 54 0 0.0 0.0 0.00 0.15 0.00 90 1022.6
20260503054558 54 0 0.0 0.0 0.00 0.15 0.00 90 1022.5
20260503054047 54 0 0.0 0.0 0.00 0.15 0.00 90 1022.6
20260503053547 54 0 0.0 0.0 0.00 0.15 0.00 90 1022.5
20260503053054 54 0 0.0 0.0 0.00 0.15 0.00 90 1022.5
20260503052547 54 0 0.0 0.0 0.00 0.15 0.00 90 1022.6
20260503052047 54 0 0.0 0.0 0.00 0.15 0.00 89 1022.6
20260503051553 55 0 0.0 0.0 0.00 0.15 0.00 89 1022.7
20260503051051 55 0 0.0 0.0 0.00 0.15 0.00 88 1022.6
20260503050548 55 0 0.0 0.0 0.00 0.15 0.00 88 1022.6
20260503050101 55 0 0.0 0.0 0.00 0.15 0.00 88 1022.8
20260503045547 55 0 0.0 0.0 0.00 0.16 0.15 88 1022.7
20260503045048 55 0 0.0 0.0 0.00 0.16 0.15 88 1022.6
20260503044553 55 0 0.0 0.0 0.01 0.16 0.15 87 1022.6
20260503044046 55 0 0.0 0.0 0.01 0.16 0.15 87 1022.6
20260503043546 55 0 0.0 0.0 0.01 0.16 0.15 87 1022.7
20260503043054 56 0 0.0 0.0 0.01 0.16 0.15 86 1022.6
20260503042547 56 0 0.0 0.0 0.01 0.16 0.15 86 1022.5
20260503042048 56 0 0.0 0.0 0.01 0.16 0.15 86 1022.6
20260503041552 56 0 0.0 0.0 0.01 0.16 0.15 86 1022.4
20260503041047 56 0 0.0 0.0 0.01 0.16 0.15 86 1022.3
20260503040548 56 0 0.0 0.0 0.01 0.16 0.15 86 1022.3
20260503040055 56 0 0.0 0.0 0.01 0.16 0.15 86 1022.3
20260503035548 57 0 0.0 0.0 0.01 0.18 0.15 85 1022.4
20260503035047 57 0 0.0 0.0 0.01 0.18 0.15 84 1022.3
20260503034557 57 0 0.0 0.0 0.00 0.17 0.14 85 1022.3
20260503034046 57 0 0.0 0.0 0.00 0.17 0.14 85 1022.2
20260503033547 57 0 0.0 0.0 0.00 0.17 0.14 84 1022.1
20260503033058 57 0 0.0 0.0 0.00 0.17 0.14 83 1022.1
20260503032547 58 0 0.0 0.0 0.00 0.17 0.14 83 1022.1
20260503032047 58 0 0.0 0.0 0.00 0.17 0.14 82 1022.1
20260503031554 58 0 0.0 0.0 0.00 0.17 0.14 81 1022.0
20260503031048 58 0 0.0 0.0 0.00 0.17 0.14 82 1022.0
20260503030547 59 0 0.0 0.0 0.00 0.17 0.14 81 1021.9
20260503030051 59 0 0.0 0.0 0.00 0.17 0.14 80 1021.9
20260503025547 59 0 0.0 0.0 0.00 0.18 0.14 80 1021.9
20260503025050 59 0 0.0 0.0 0.00 0.18 0.14 80 1021.9
20260503024551 59 0 0.0 0.0 0.00 0.18 0.14 80 1021.9
20260503024047 59 0 0.0 0.0 0.00 0.18 0.14 81 1021.8
20260503023546 60 0 0.0 0.0 0.00 0.18 0.14 80 1021.6
20260503023050 60 0 0.0 0.0 0.00 0.18 0.14 78 1021.4
20260503022547 60 0 0.0 0.0 0.00 0.18 0.14 77 1021.5
20260503022050 61 0 0.0 0.0 0.00 0.18 0.14 78 1021.4
20260503021552 61 0 0.0 0.0 0.00 0.18 0.14 77 1021.1
20260503021047 61 0 0.0 1.0 0.00 0.18 0.14 77 1021.1
20260503020547 62 0 0.0 1.0 0.00 0.18 0.14 77 1021.0
20260503020052 62 0 0.0 1.0 0.00 0.18 0.14 75 1021.0
20260503015549 63 0 0.0 0.0 0.00 0.19 0.14 75 1021.0
20260503015049 63 0 0.0 0.0 0.00 0.19 0.14 75 1021.0
20260503014601 64 0 0.0 0.0 0.00 0.19 0.14 74 1021.0
20260503014046 65 0 0.0 0.0 0.00 0.19 0.14 72 1021.0
20260503013549 65 0 0.0 0.0 0.00 0.19 0.14 73 1021.1
20260503013050 66 0 0.0 0.0 0.00 0.19 0.14 73 1021.0
20260503012546 66 0 0.0 1.0 0.00 0.19 0.14 70 1021.0
20260503012046 66 0 0.0 1.0 0.00 0.19 0.14 66 1020.9
20260503011610 67 0 0.0 0.0 0.00 0.19 0.14 66 1020.6
20260503011047 67 0 0.0 0.0 0.00 0.19 0.14 68 1020.6
20260503010548 67 0 0.0 1.0 0.00 0.19 0.14 66 1020.6
20260503010050 67 0 0.0 1.0 0.00 0.19 0.14 66 1020.7
20260503005547 68 0 0.0 0.0 0.00 0.21 0.14 65 1020.6
20260503005047 68 0 0.0 1.0 0.00 0.21 0.14 60 1020.6
20260503004548 68 0 0.0 1.0 0.00 0.21 0.14 63 1020.5
20260503004047 68 0 0.0 0.0 0.00 0.21 0.14 65 1020.5
20260503003549 68 0 0.0 0.0 0.00 0.21 0.14 65 1020.5
20260503003107 69 0 0.0 0.0 0.00 0.21 0.14 64 1020.5
20260503002547 69 0 0.0 1.0 0.00 0.21 0.14 66 1020.4
20260503002047 69 0 0.0 1.0 0.00 0.21 0.14 66 1020.4
20260503001553 70 0 0.0 1.0 0.00 0.21 0.14 67 1020.4
20260503001046 70 0 0.0 0.0 0.00 0.21 0.14 62 1020.4
20260503000546 70 0 0.0 0.0 0.00 0.21 0.14 61 1020.3
20260503000050 70 0 0.0 0.0 0.00 0.21 0.14 59 1020.4
20260502235547 70 0 0.0 0.0 0.00 0.22 0.14 59 1020.3
20260502235048 71 0 0.0 1.0 0.01 0.22 0.14 61 1020.3
20260502234609 71 0 0.0 1.0 0.01 0.22 0.14 60 1020.3
20260502234047 71 0 0.0 1.0 0.01 0.22 0.14 60 1020.3
20260502233548 71 0 0.0 1.0 0.01 0.22 0.14 58 1020.3
20260502233050 71 0 0.0 1.0 0.01 0.22 0.14 60 1020.2
20260502232547 71 0 0.0 1.0 0.01 0.22 0.14 60 1020.2